QPF
0.00 0.00 0.00 0.00 0.00 0.00 0.00 0.00 0.00 0.00 0.00 0.00 0.00 0.00 0.00 0.00 0.00 0.00 0.00 0.00 0.00 0.00 0.00 0.00 0.00 0.00 0.00 0.00 0.00 0.00 0.00 0.00 0.00 0.00 0.00 0.00 0.00 0.00 0.00 0.00 0.00 0.00 0.00 0.00 0.00
0.00 0.00 0.00 0.00 0.00 0.00 0.00 0.00 0.00 0.00 0.00 0.00 0.00 0.00 0.00 0.00 0.00 0.00 0.00 0.00 0.00 0.00 0.00 0.00 0.00 0.00 0.00 0.00 0.00 0.00 0.00 0.00 0.00 0.00 0.00 0.00 0.00 0.00 0.00 0.00 0.00 0.00 0.00 0.00 0.00
0.00 0.00 0.00 0.00 0.00 0.00 0.00 0.00 0.00 0.00 0.00 0.00 0.00 0.00 0.00 0.00 0.00 0.00 0.00 0.00 0.00 0.00 0.00 0.00 0.00 0.00 0.00 0.00 0.00 0.00 0.00 0.00 0.00 0.00 0.00 0.00 0.00 0.00 0.00 0.00 0.00 0.00 0.00 0.00 0.00
0.00 0.00 0.00 0.00 0.00 0.00 0.00 0.00 0.00 0.00 0.00 0.00 0.00 0.00 0.00 0.00 0.00 0.00 0.00 0.00 0.00 0.00 0.00 0.00 0.00 0.00 0.00 0.00 0.00 0.00 0.00 0.00 0.00 0.00 0.00 0.00 0.00 0.00 0.00 0.00 0.00 0.00 0.00 0.00 0.00
0.00 0.00 0.00 0.00 0.00 0.00 0.00 0.00 0.00 0.00 0.00 0.00 0.00 0.00 0.00 0.00 0.00 0.00 0.00 0.00 0.00 0.00 0.00 0.00 0.00 0.00 0.00 0.00 0.00 0.00 0.00 0.00 0.00 0.00 0.00 0.00 0.00 0.00 0.00 0.00 0.00 0.00 0.00 0.00 0.00
0.00 0.00 0.00 0.00 0.00 0.00 0.00 0.00 0.00 0.00 0.00 0.00 0.00 0.00 0.00 0.00 0.00 0.00 0.00 0.00 0.00 0.00 0.00 0.00 0.00 0.00 0.00 0.00 0.00 0.00 0.00 0.00 0.00 0.00 0.00 0.00 0.00 0.00 0.00 0.00 0.00 0.00 0.00 0.00 0.00
0.00 0.00 0.00 0.00 0.00 0.00 0.00 0.00 0.00 0.00 0.00 0.00 0.00 0.00 0.00 0.00 0.00 0.00 0.00 0.00 0.00 0.00 0.00 0.00 0.00 0.00 0.00 0.00 0.00 0.00 0.00 0.00 0.00 0.00 0.00 0.00 0.00 0.00 0.00 0.00 0.00 0.00 0.00 0.00 0.00
0.00 0.00 0.00 0.00 0.00 0.00 0.00 0.00 0.00 0.00 0.00 0.00 0.00 0.00 0.00 0.00 0.00 0.00 0.00 0.00 0.00 0.00 0.00 0.00 0.00 0.00 0.00 0.00 0.00 0.00 0.00 0.00 0.00 0.00 0.00 0.00 0.00 0.00 0.00 0.00 0.00 0.00 0.00 0.00 0.00
0.00 0.00 0.00 0.00 0.00 0.00 0.00 0.00 0.00 0.00 0.00 0.00 0.00 0.00 0.00 0.00 0.00 0.00 0.00 0.00 0.00 0.00 0.00 0.00 0.00 0.00 0.00 0.00 0.00 0.00 0.00 0.00 0.00 0.00 0.00 0.00 0.00 0.00 0.00 0.00 0.00 0.00 0.00 0.00 0.00
0.00 0.00 0.00 0.00 0.00 0.00 0.00 0.00 0.00 0.00 0.00 0.00 0.00 0.00 0.00 0.00 0.00 0.00 0.00 0.00 0.00 0.00 0.00 0.00 0.00 0.00 0.00 0.00 0.00 0.00 0.00 0.00 0.00 0.00 0.00 0.00 0.00 0.00 0.00 0.00 0.00 0.00 0.00 0.00 0.00
0.00 0.00 0.00 0.00 0.00 0.00 0.00 0.00 0.00 0.00 0.00 0.00 0.00 0.00 0.00 0.00 0.00 0.00 0.00 0.00 0.00 0.00 0.00 0.00 0.00 0.00 0.00 0.00 0.00 0.00 0.00 0.00 0.00 0.00 0.00 0.00 0.00 0.00 0.00 0.00 0.00 0.00 0.00 0.00 0.00
0.00 0.00 0.00 0.00 0.00 0.00 0.00 0.00 0.00 0.00 0.00 0.00 0.00 0.00 0.00 0.00 0.00 0.00 0.00 0.00 0.00 0.00 0.00 0.00 0.00 0.00 0.00 0.00 0.00 0.00 0.00 0.00 0.00 0.00 0.00 0.00 0.00 0.00 0.00 0.00 0.00 0.00 0.00 0.00 0.00
0.00 0.00 0.00 0.00 0.00 0.00 0.00 0.00 0.00 0.00 0.00 0.00 0.00 0.00 0.00 0.00 0.00 0.00 0.00 0.00 0.00 0.00 0.00 0.00 0.00 0.00 0.00 0.00 0.00 0.00 0.00 0.00 0.00 0.00 0.00 0.00 0.00 0.00 0.00 0.00 0.00 0.00 0.00 0.00 0.00
0.00 0.00 0.00 0.00 0.00 0.00 0.00 0.00 0.00 0.00 0.00 0.00 0.00 0.00 0.00 0.00 0.00 0.00 0.00 0.00 0.00 0.00 0.00 0.00 0.00 0.00 0.00 0.00 0.00 0.00 0.00 0.00 0.00 0.00 0.00 0.00 0.00 0.00 0.00 0.00 0.00 0.00 0.00 0.00 0.00
0.00 0.00 0.00 0.00 0.00 0.00 0.00 0.00 0.00 0.00 0.00 0.00 0.00 0.00 0.00 0.00 0.00 0.00 0.00 0.00 0.00 0.00 0.00 0.00 0.00 0.00 0.00 0.00 0.00 0.00 0.00 0.00 0.00 0.00 0.00 0.00 0.00 0.00 0.00 0.00 0.00 0.00 0.00 0.00 0.00
0.00 0.00 0.00 0.00 0.00 0.00 0.00 0.00 0.00 0.00 0.00 0.00 0.00 0.00 0.00 0.00 0.00 0.00 0.00 0.00 0.00 0.00 0.00 0.00 0.00 0.00 0.00 0.00 0.00 0.00 0.00 0.00 0.00 0.00 0.00 0.00 0.00 0.00 0.00 0.00 0.00 0.00 0.00 0.00 0.00
0.00 0.00 0.00 0.00 0.00 0.00 0.00 0.00 0.00 0.00 0.00 0.00 0.00 0.00 0.00 0.00 0.00 0.00 0.00 0.00 0.00 0.00 0.00 0.00 0.00 0.00 0.00 0.00 0.00 0.00 0.00 0.00 0.00 0.00 0.00 0.00 0.00 0.00 0.00 0.00 0.00 0.00 0.00 0.00 0.00
0.00 0.00 0.00 0.00 0.00 0.00 0.00 0.00 0.00 0.00 0.00 0.00 0.00 0.00 0.00 0.00 0.00 0.00 0.00 0.00 0.00 0.00 0.00 0.00 0.00 0.00 0.00 0.00 0.00 0.00 0.00 0.00 0.00 0.00 0.00 0.00 0.00 0.00 0.00 0.00 0.00 0.00 0.00 0.00 0.00
0.00 0.00 0.00 0.00 0.00 0.00 0.00 0.00 0.00 0.00 0.00 0.00 0.00 0.00 0.00 0.00 0.00 0.00 0.00 0.00 0.00 0.00 0.00 0.00 0.00 0.00 0.00 0.00 0.00 0.00 0.00 0.00 0.00 0.00 0.00 0.00 0.00 0.00 0.00 0.00 0.00 0.00 0.00 0.00 0.00
0.00 0.00 0.00 0.00 0.00 0.00 0.00 0.00 0.00 0.00 0.00 0.00 0.00 0.00 0.00 0.00 0.00 0.00 0.00 0.00 0.00 0.00 0.00 0.00 0.00 0.00 0.00 0.00 0.00 0.00 0.00 0.00 0.00 0.00 0.00 0.00 0.00 0.00 0.00 0.00 0.00 0.00 0.00 0.00 0.00
0.00 0.00 0.00 0.00 0.00 0.00 0.00 0.00 0.00 0.00 0.00 0.00 0.00 0.00 0.00 0.00 0.00 0.00 0.00 0.00 0.00 0.00 0.00 0.00 0.00 0.00 0.00 0.00 0.00 0.00 0.00 0.00 0.00 0.00 0.00 0.00 0.00 0.00 0.00 0.00 0.00 0.00 0.00 0.00 0.00
0.00 0.00 0.00 0.00 0.00 0.00 0.00 0.00 0.00 0.00 0.00 0.00 0.00 0.00 0.00 0.00 0.00 0.00 0.00 0.00 0.00 0.00 0.00 0.00 0.00 0.00 0.00 0.00 0.00 0.00 0.00 0.00 0.00 0.00 0.00 0.00 0.00 0.00 0.00 0.00 0.00 0.00 0.00 0.00 0.00
0.00 0.00 0.00 0.00 0.00 0.00 0.00 0.00 0.00 0.00 0.00 0.00 0.00 0.00 0.00 0.00 0.00 0.00 0.00 0.00 0.00 0.00 0.00 0.00 0.00 0.00 0.00 0.00 0.00 0.00 0.00 0.00 0.00 0.00 0.00 0.00 0.00 0.00 0.00 0.00 0.00 0.00 0.00 0.00 0.00
0.00 0.00 0.00 0.00 0.00 0.00 0.00 0.00 0.00 0.00 0.00 0.00 0.00 0.00 0.00 0.00 0.00 0.00 0.00 0.00 0.00 0.00 0.00 0.00 0.00 0.00 0.00 0.00 0.00 0.00 0.00 0.00 0.00 0.00 0.00 0.00 0.00 0.00 0.00 0.00 0.00 0.00 0.00 0.00 0.00
0.00 0.00 0.00 0.00 0.00 0.00 0.00 0.00 0.00 0.00 0.00 0.00 0.00 0.00 0.00 0.00 0.00 0.00 0.00 0.00 0.00 0.00 0.00 0.00 0.00 0.00 0.00 0.00 0.00 0.00 0.00 0.00 0.00 0.00 0.00 0.00 0.00 0.00 0.00 0.01 0.02 0.01 0.00 0.00 0.00
0.00 0.00 0.00 0.00 0.00 0.00 0.00 0.00 0.00 0.00 0.00 0.00 0.00 0.00 0.00 0.00 0.00 0.00 0.00 0.00 0.00 0.00 0.00 0.00 0.00 0.00 0.00 0.00 0.00 0.00 0.00 0.00 0.00 0.00 0.00 0.00 0.00 0.00 0.00 0.00 0.00 0.01 0.00 0.00 0.00
0.00 0.00 0.00 0.00 0.00 0.00 0.00 0.00 0.00 0.00 0.00 0.00 0.00 0.00 0.00 0.00 0.00 0.00 0.00 0.00 0.00 0.00 0.00 0.00 0.00 0.00 0.00 0.00 0.00 0.00 0.00 0.00 0.00 0.00 0.00 0.00 0.00 0.00 0.00 0.00 0.00 0.00 0.00 0.00 0.00
MSLP
1018.45 1017.97 1017.59 1017.14 1016.54 1016.09 1015.65 1015.13 1014.49 1013.85 1013.28 1012.77 1012.19 1012.08 1011.54 1010.95 1009.98 1009.36 1007.19 1005.53 1005.65 1005.93 1006.47 1005.61 1005.46 1004.08 1003.07 1002.06 1001.17 1000.20 999.56 998.08 997.12 996.90 996.76 996.46 996.92 997.19 997.83 998.88 999.47 1000.06 1000.73 1002.36 1003.88
1018.70 1018.28 1017.74 1017.15 1016.67 1016.14 1015.57 1015.16 1014.59 1013.95 1013.36 1012.81 1012.07 1011.49 1011.29 1010.85 1009.09 1006.74 1004.60 1005.04 1005.31 1005.87 1005.86 1004.83 1003.98 1003.34 1002.42 1000.93 999.85 999.30 999.16 997.60 997.19 997.01 996.90 996.36 996.48 996.84 997.35 999.13 1000.02 1000.57 1001.69 1003.08 1003.94
1018.89 1018.39 1017.89 1017.28 1016.68 1015.99 1015.39 1014.90 1014.31 1013.77 1013.15 1012.51 1012.00 1011.41 1011.15 1010.58 1007.86 1004.52 1004.99 1005.17 1005.30 1005.55 1004.83 1003.99 1003.34 1002.76 1002.09 1000.80 999.42 998.88 998.47 997.74 997.25 997.02 996.91 996.36 996.12 996.37 996.79 998.36 1000.16 1000.39 1001.69 1003.02 1003.86
1019.02 1018.52 1017.98 1017.37 1016.72 1016.01 1015.38 1014.74 1014.10 1013.59 1013.11 1012.48 1011.75 1011.12 1010.64 1009.51 1006.46 1004.72 1005.07 1005.23 1005.47 1005.24 1004.89 1003.57 1003.22 1002.50 1001.61 1000.39 999.04 998.59 998.45 998.05 997.32 996.91 996.57 996.44 996.46 996.27 996.87 997.31 998.26 999.73 1001.20 1002.57 1003.59
1019.10 1018.55 1018.04 1017.43 1016.66 1015.96 1015.24 1014.56 1013.83 1013.23 1012.84 1012.43 1011.81 1011.30 1009.82 1007.86 1005.00 1005.00 1005.52 1005.65 1005.72 1005.63 1004.46 1003.32 1002.74 1002.05 1001.17 1000.34 999.40 998.69 998.30 997.87 997.43 996.90 996.43 996.77 996.58 996.74 996.85 997.36 998.10 999.49 1000.85 1002.15 1003.13
1019.09 1018.45 1017.72 1017.09 1016.51 1015.79 1015.04 1014.29 1013.44 1012.77 1012.31 1012.01 1011.73 1011.58 1010.05 1006.47 1003.75 1004.58 1004.86 1005.29 1004.72 1004.82 1003.82 1003.06 1002.29 1001.75 1001.19 1000.71 1000.14 999.34 998.71 998.29 998.05 997.04 996.37 996.54 996.25 996.22 997.31 997.75 998.28 999.38 1000.54 1001.62 1002.52
1019.09 1018.40 1017.77 1017.02 1016.18 1015.37 1014.62 1013.80 1013.04 1012.37 1011.76 1011.48 1011.52 1010.79 1008.27 1005.04 1003.01 1003.53 1004.27 1004.34 1004.11 1003.86 1003.14 1002.52 1002.13 1001.91 1001.52 1000.95 1000.26 999.50 998.85 998.29 997.62 996.66 996.00 996.15 996.20 996.06 997.06 997.48 998.15 999.19 1000.27 1001.21 1002.01
1019.22 1018.47 1017.77 1016.97 1016.19 1015.19 1014.07 1013.07 1012.25 1011.59 1011.23 1010.90 1011.00 1009.94 1006.27 1003.30 1002.47 1002.42 1003.31 1003.52 1003.64 1003.07 1002.67 1002.11 1001.78 1001.78 1001.69 1001.32 1000.63 999.83 999.17 998.01 996.87 996.05 995.79 996.34 995.76 996.02 996.34 996.85 998.05 998.88 999.77 1000.68 1001.64
1019.24 1018.42 1017.59 1016.80 1015.94 1015.00 1013.79 1012.30 1011.10 1010.54 1010.60 1010.53 1010.01 1008.33 1004.36 1002.83 1002.40 1002.18 1002.45 1002.53 1002.63 1002.57 1002.23 1002.18 1002.07 1001.99 1001.53 1001.00 1000.28 999.35 998.63 997.54 996.38 995.49 995.42 996.11 995.86 995.56 995.57 996.34 997.32 998.40 999.36 1000.33 1001.40
1019.27 1018.51 1017.60 1016.73 1015.63 1014.81 1013.38 1011.02 1009.49 1009.80 1009.84 1009.19 1008.02 1006.87 1003.52 1001.66 1001.40 1001.50 1001.75 1002.01 1001.69 1001.85 1001.92 1001.87 1001.97 1001.56 1000.93 1000.29 999.24 998.27 997.40 996.70 995.97 995.32 995.11 995.42 995.78 995.61 995.26 995.70 996.49 997.50 998.96 1000.04 1001.07
1019.31 1018.50 1017.48 1016.46 1015.25 1014.59 1013.52 1009.92 1008.78 1008.83 1007.81 1006.09 1004.15 1003.39 1001.39 1000.50 1000.69 1000.49 1000.95 1001.58 1001.63 1001.34 1001.08 1001.19 1001.14 1000.39 999.79 999.03 998.51 997.97 997.49 996.68 995.93 995.57 995.60 995.51 995.71 995.53 995.32 995.31 995.92 996.79 998.24 999.56 1000.52
1019.15 1018.29 1017.32 1016.11 1015.02 1014.01 1013.68 1010.24 1008.36 1008.49 1006.57 1005.11 1003.85 1002.46 1001.26 1000.33 1000.06 1000.20 1000.49 1000.70 1001.02 1000.71 1000.65 1000.51 999.71 999.56 998.93 998.43 997.96 997.69 997.64 997.33 996.88 996.34 996.20 995.97 995.65 995.38 995.09 995.05 995.66 995.94 997.23 998.80 999.99
1019.27 1018.67 1017.63 1016.28 1014.74 1013.05 1011.06 1009.31 1008.47 1007.95 1006.35 1003.87 1002.82 1001.58 1000.70 1000.34 999.47 999.50 999.60 999.87 1000.00 1000.16 999.78 999.21 998.60 998.09 997.93 997.83 997.74 997.90 997.85 997.33 996.89 996.37 995.93 995.81 995.41 995.32 994.73 994.71 995.48 995.88 996.42 997.76 999.26
1019.36 1018.79 1017.79 1016.67 1013.98 1012.18 1010.02 1008.82 1008.42 1007.88 1005.74 1002.20 1000.25 999.34 999.70 999.30 998.56 998.88 998.85 998.92 999.30 998.95 998.72 998.22 997.72 997.35 996.94 997.11 997.50 997.42 997.36 996.98 996.80 996.55 996.04 995.65 995.05 994.58 994.39 994.23 994.88 995.59 996.11 997.00 998.54
1019.34 1018.81 1017.83 1017.99 1015.70 1012.29 1009.70 1009.38 1008.74 1007.98 1004.69 1000.10 997.28 996.14 997.21 997.78 997.85 997.54 998.08 998.26 997.99 998.14 998.43 997.43 997.05 996.69 996.41 996.61 996.80 997.01 997.14 996.89 996.54 996.53 996.44 995.83 995.01 993.61 993.13 993.61 994.16 994.77 995.63 996.48 997.91
1018.84 1018.34 1018.11 1014.93 1014.80 1012.12 1010.29 1009.49 1008.93 1007.34 1003.19 999.92 997.48 995.82 996.05 996.61 996.74 996.95 996.81 997.40 997.47 997.59 997.44 996.87 996.59 996.03 995.84 996.06 996.63 996.84 996.93 996.96 996.86 996.85 996.09 995.32 994.54 993.10 992.63 993.21 993.79 995.18 995.64 996.68 997.72
1018.38 1017.52 1017.89 1016.41 1012.66 1011.05 1010.73 1009.77 1008.22 1005.54 1002.32 999.68 998.19 996.56 996.21 996.20 996.04 996.30 996.51 995.91 996.39 996.74 996.62 996.60 996.13 995.85 995.68 995.77 996.13 996.37 996.74 996.74 996.75 996.16 995.06 994.03 993.42 992.83 992.44 993.15 993.68 994.71 995.98 997.06 997.92
1017.93 1016.25 1014.27 1013.52 1011.76 1011.32 1010.60 1009.57 1007.13 1004.14 1002.28 1000.40 998.73 997.18 996.38 995.96 995.89 995.78 995.89 995.24 995.43 996.04 995.87 995.74 995.55 995.48 995.27 995.34 995.92 995.83 996.32 996.36 995.93 995.07 993.99 992.95 992.56 991.89 991.95 992.39 993.51 994.61 995.70 997.00 998.00
1017.12 1013.63 1011.65 1010.78 1011.50 1011.12 1010.41 1008.21 1005.78 1004.27 1002.27 1000.45 999.54 998.38 996.86 996.01 995.34 995.17 995.06 994.99 994.86 995.14 995.34 995.17 994.65 994.45 994.35 994.49 995.18 995.66 995.64 996.06 995.95 995.40 994.72 993.63 993.17 992.26 992.17 992.49 993.12 994.34 995.51 996.87 998.05
1017.31 1013.51 1010.37 1009.10 1010.39 1010.56 1009.51 1007.27 1005.57 1003.96 1002.55 1001.18 1000.18 999.32 997.97 996.98 996.31 995.55 994.85 994.43 994.43 994.35 994.39 994.58 994.58 994.25 993.67 993.49 993.72 994.43 995.45 995.73 995.55 995.34 994.86 993.91 993.00 992.21 992.04 992.65 993.35 994.27 995.45 996.73 997.84
1016.62 1012.11 1009.39 1009.33 1010.01 1009.71 1007.90 1006.22 1004.90 1003.63 1002.83 1001.65 1000.77 1000.02 999.08 998.27 997.53 996.61 996.20 995.05 994.77 993.68 993.66 994.02 994.17 993.87 993.77 993.26 993.04 993.59 994.44 995.04 995.13 995.05 994.79 994.48 993.57 993.22 993.53 993.73 993.41 993.95 995.04 996.57 997.75
1015.17 1011.35 1009.30 1009.37 1009.30 1008.04 1006.71 1005.65 1004.79 1003.44 1002.19 1001.45 1001.27 1001.27 1000.39 999.55 998.91 997.68 996.83 996.29 995.47 994.43 993.35 993.55 993.51 993.39 993.28 992.70 993.05 993.38 993.73 994.37 994.88 995.15 995.09 994.87 994.33 994.28 993.97 993.45 993.93 994.18 995.19 996.52 997.60
1015.15 1011.21 1008.83 1009.07 1008.14 1006.51 1005.26 1004.16 1003.67 1003.08 1002.42 1001.87 1001.51 1001.23 1001.03 1000.48 999.78 998.67 997.90 997.75 996.68 995.73 995.29 994.52 993.39 993.57 993.38 992.98 992.89 993.11 993.48 993.71 994.23 994.89 994.99 995.29 995.14 994.80 995.01 995.47 995.45 995.46 995.89 996.69 997.53
1015.57 1010.63 1008.23 1008.41 1008.05 1007.18 1005.91 1004.58 1003.50 1003.01 1002.92 1002.74 1002.29 1001.79 1001.08 1000.44 999.85 999.03 998.55 997.80 996.72 996.23 996.30 995.65 994.84 994.49 993.60 993.16 993.36 993.41 993.03 993.20 993.48 993.91 994.61 995.13 997.00 996.82 998.38 997.85 997.75 996.71 996.85 997.33 997.80
1015.17 1010.90 1009.53 1009.43 1007.19 1006.65 1006.13 1005.26 1004.47 1003.70 1002.96 1002.56 1002.52 1002.08 1001.75 1000.96 1000.00 999.12 998.45 997.81 997.52 996.98 996.67 996.37 995.98 995.49 994.31 993.94 993.44 994.19 994.31 993.63 993.64 993.92 994.51 995.75 997.65 999.34 999.95 1000.08 1001.25 998.15 998.33 998.73 998.75
1015.01 1012.80 1011.29 1010.02 1008.59 1007.67 1006.32 1005.80 1005.13 1004.55 1004.54 1003.18 1002.48 1002.14 1001.73 1000.83 1000.48 999.68 998.66 997.92 997.43 997.25 997.92 997.50 997.05 996.57 995.55 994.71 994.61 994.35 994.36 994.07 994.06 994.02 994.89 995.80 998.11 999.22 1000.45 1000.25 1000.14 1000.58 999.70 999.51 999.52
1014.80 1014.31 1013.31 1010.84 1008.98 1007.09 1006.02 1005.94 1005.14 1004.98 1004.72 1003.98 1002.97 1002.00 1001.67 1000.63 999.91 999.08 998.77 998.32 997.84 997.83 998.83 999.37 998.25 997.46 996.70 996.74 996.38 995.93 995.26 995.28 994.70 994.72 995.56 997.16 999.37 1000.48 1001.25 1001.64 1001.18 1001.23 1001.35 1000.52 1000.36
Thickness
5770 5775 5779 5783 5789 5793 5797 5801 5806 5812 5818 5823 5828 5828 5832 5837 5845 5852 5855 5877 5879 5878 5875 5878 5876 5884 5892 5886 5897 5903 5860 5858 5879 5880 5886 5914 5894 5907 5908 5881 5881 5881 5872 5863 5856
5765 5770 5776 5781 5785 5791 5797 5801 5805 5810 5815 5820 5828 5832 5833 5837 5851 5859 5889 5884 5883 5878 5872 5869 5866 5877 5871 5883 5894 5883 5857 5876 5902 5902 5892 5909 5905 5902 5893 5865 5854 5868 5873 5866 5857
5761 5765 5770 5777 5783 5789 5795 5800 5805 5810 5815 5821 5825 5831 5833 5838 5850 5872 5884 5883 5882 5879 5881 5883 5881 5874 5860 5880 5888 5887 5865 5894 5902 5907 5908 5905 5907 5916 5900 5863 5856 5861 5863 5860 5853
5755 5761 5766 5772 5778 5785 5791 5797 5803 5808 5812 5818 5825 5830 5835 5843 5823 5877 5882 5881 5879 5880 5875 5875 5868 5856 5854 5858 5894 5874 5889 5893 5903 5911 5908 5899 5910 5905 5901 5896 5899 5886 5878 5864 5851
5749 5755 5760 5765 5773 5780 5788 5794 5800 5806 5810 5814 5820 5825 5840 5838 5851 5878 5875 5874 5874 5871 5866 5866 5858 5858 5848 5863 5879 5875 5886 5898 5904 5907 5912 5907 5896 5893 5898 5908 5908 5893 5880 5865 5855
5743 5749 5756 5762 5768 5774 5782 5790 5798 5804 5808 5812 5815 5817 5826 5820 5886 5877 5878 5872 5873 5867 5868 5870 5863 5871 5859 5856 5856 5874 5879 5883 5889 5898 5910 5894 5899 5905 5891 5906 5896 5885 5877 5868 5860
5737 5744 5750 5756 5763 5771 5779 5786 5794 5800 5806 5808 5809 5817 5823 5835 5886 5883 5876 5870 5875 5871 5863 5877 5878 5862 5862 5849 5873 5873 5859 5873 5884 5899 5905 5910 5883 5888 5898 5901 5888 5880 5876 5869 5863
5729 5736 5742 5748 5755 5765 5775 5785 5793 5799 5803 5806 5806 5812 5816 5871 5884 5881 5879 5869 5875 5880 5876 5883 5884 5865 5854 5864 5857 5849 5854 5839 5882 5900 5909 5896 5862 5893 5904 5895 5881 5879 5876 5869 5864
5723 5729 5736 5742 5749 5757 5767 5781 5792 5798 5799 5800 5805 5806 5818 5871 5858 5873 5876 5861 5867 5872 5876 5878 5868 5849 5852 5834 5829 5845 5823 5843 5868 5907 5902 5886 5867 5902 5916 5898 5884 5879 5876 5869 5864
5717 5722 5730 5735 5744 5750 5761 5781 5792 5790 5793 5798 5807 5793 5834 5839 5859 5864 5873 5867 5858 5857 5851 5850 5842 5829 5835 5829 5804 5829 5845 5860 5863 5894 5898 5882 5873 5895 5913 5902 5892 5884 5876 5869 5862
5711 5715 5723 5730 5738 5741 5750 5777 5782 5777 5787 5793 5813 5808 5836 5857 5865 5859 5866 5851 5849 5843 5821 5838 5816 5811 5831 5847 5852 5854 5850 5850 5872 5893 5879 5873 5870 5884 5900 5901 5893 5886 5877 5869 5864
5708 5713 5718 5726 5730 5735 5736 5756 5764 5765 5758 5793 5803 5810 5838 5849 5825 5845 5863 5829 5825 5811 5828 5820 5809 5838 5851 5855 5853 5850 5836 5836 5857 5875 5869 5865 5863 5883 5894 5895 5894 5895 5880 5873 5867
5699 5701 5707 5714 5724 5736 5746 5749 5765 5763 5739 5776 5794 5802 5818 5830 5818 5829 5848 5836 5819 5810 5819 5813 5831 5856 5850 5844 5837 5833 5827 5835 5839 5863 5874 5863 5853 5863 5890 5897 5893 5896 5893 5882 5871
5690 5692 5697 5702 5720 5731 5733 5753 5751 5753 5712 5756 5787 5805 5814 5823 5806 5847 5851 5838 5822 5812 5824 5827 5852 5848 5849 5837 5840 5817 5850 5851 5845 5840 5821 5867 5817 5858 5876 5883 5884 5886 5888 5882 5875
5682 5684 5688 5684 5696 5712 5731 5734 5739 5733 5671 5774 5807 5847 5828 5807 5819 5824 5855 5836 5812 5818 5823 5820 5836 5839 5835 5840 5851 5829 5852 5847 5850 5836 5832 5838 5829 5858 5888 5873 5879 5885 5884 5886 5878
5675 5678 5675 5693 5690 5707 5717 5722 5718 5685 5678 5755 5798 5808 5805 5810 5813 5829 5832 5843 5841 5821 5827 5831 5859 5856 5851 5857 5850 5853 5840 5839 5841 5830 5800 5833 5836 5849 5871 5874 5882 5875 5875 5880 5877
5671 5675 5668 5671 5692 5706 5703 5698 5675 5673 5743 5751 5768 5799 5800 5798 5807 5811 5806 5815 5799 5784 5790 5815 5826 5850 5859 5836 5849 5843 5821 5790 5786 5797 5799 5856 5845 5856 5886 5880 5885 5870 5869 5872 5875
5667 5677 5685 5686 5693 5692 5689 5673 5657 5708 5723 5760 5771 5788 5781 5801 5801 5806 5801 5804 5823 5812 5800 5790 5784 5827 5851 5837 5822 5830 5824 5795 5772 5796 5825 5865 5836 5863 5900 5903 5891 5887 5876 5874 5868
5664 5685 5693 5696 5684 5683 5669 5660 5680 5700 5732 5743 5750 5750 5769 5793 5803 5805 5802 5803 5818 5822 5791 5793 5797 5847 5851 5856 5845 5820 5809 5840 5812 5826 5815 5841 5853 5883 5891 5887 5887 5873 5872 5862 5859
5652 5672 5688 5699 5684 5673 5662 5662 5686 5714 5728 5738 5723 5745 5744 5769 5778 5790 5796 5818 5814 5831 5838 5815 5787 5829 5846 5862 5858 5837 5844 5804 5816 5780 5778 5819 5838 5844 5862 5865 5871 5861 5860 5858 5857
5651 5670 5692 5689 5678 5663 5658 5675 5692 5715 5723 5721 5722 5728 5743 5751 5765 5760 5768 5805 5818 5827 5837 5826 5812 5811 5833 5824 5827 5831 5817 5822 5828 5823 5796 5794 5824 5863 5855 5858 5865 5863 5863 5857 5851
5651 5655 5686 5681 5653 5667 5668 5684 5691 5705 5725 5728 5728 5722 5727 5740 5736 5753 5760 5770 5797 5811 5813 5829 5816 5795 5808 5847 5851 5842 5829 5826 5798 5790 5814 5811 5817 5850 5865 5872 5868 5869 5863 5858 5853
5640 5658 5683 5672 5647 5667 5687 5696 5703 5703 5709 5714 5714 5725 5733 5725 5720 5743 5754 5769 5783 5794 5787 5808 5803 5780 5793 5822 5838 5824 5831 5835 5832 5822 5798 5793 5817 5863 5852 5850 5855 5853 5855 5854 5851
5631 5649 5668 5666 5665 5662 5668 5680 5689 5708 5702 5706 5707 5717 5719 5722 5737 5733 5742 5762 5784 5787 5778 5799 5791 5783 5778 5800 5820 5807 5827 5836 5832 5807 5807 5814 5797 5811 5802 5807 5824 5844 5847 5846 5844
5630 5646 5652 5630 5660 5665 5671 5675 5672 5678 5702 5707 5698 5705 5704 5700 5716 5725 5746 5757 5769 5774 5786 5787 5765 5781 5802 5811 5816 5801 5801 5820 5816 5822 5806 5814 5787 5788 5783 5782 5771 5822 5832 5831 5830
5619 5624 5635 5638 5651 5653 5660 5662 5663 5673 5672 5682 5690 5699 5706 5704 5712 5714 5737 5749 5753 5768 5755 5775 5760 5776 5775 5803 5806 5800 5813 5819 5820 5828 5827 5830 5790 5804 5792 5800 5804 5801 5816 5818 5821
5621 5617 5614 5627 5643 5658 5666 5661 5666 5672 5677 5685 5691 5698 5694 5716 5733 5745 5752 5757 5763 5757 5743 5741 5761 5760 5753 5761 5770 5763 5803 5804 5819 5827 5825 5808 5785 5774 5770 5776 5783 5790 5798 5806 5812